Flag for Honduras Weather past 2 weeks in Tegucigalpa, Honduras

Now
73 °F

Partly cloudy.


Feels Like: 75 °F
Forecast: 67 / 81 °F
Wind: 12 mph from North

Location: Tegucigalpa Airport

Current Time: Jul 4, 2015 at 12:09:44 AM

Latest Report: Jul 3, 2015 at 11:00 PM


Visibility: N/A

Pressure: 30.09 "Hg (26.64 "Hg at 1054m altitude)

Humidity: 74%

Dew point: 64 °F

Location of TegucigalpaLocation

Historic Weather in Tegucigalpa — Graph

°F

Tegucigalpa temperature yesterday

Maximum temperature yesterday: 84 °F (at 3:00 PM)
Minimum temperature yesterday: 68 °F (at 6:00 AM)
Average temperature yesterday: 75 °F

Past Weeks' High & Low Weather Summary

 TemperatureHumidityPressure
High84 °F (Jun 22, 2:00 PM)100% (Jun 20, 4:00 AM)30.15 "Hg (Jun 20, 4:00 AM)
Low64 °F (Jun 22, 6:00 AM)39% (Jun 27, 10:00 AM)30.01 "Hg (Jun 19, 3:00 PM)
Average74 °F73%30.10 "Hg
* Reported Jun 18 11:00 PM — Jul 3 11:00 PM, Tegucigalpa, Weather by CustomWeather, © 2015

Note: Actual official high and low records may vary slightly from our data, if they occured in-between our weather recording intervals... More about our weather records

Advertising

Tegucigalpa weather history for previous 24 hours

 ConditionsComfort  
Time TempWeatherWind HumidityBarometerVisibility
11:00 PM
Fri, Jul 3
73 °FPartly cloudy.12 mph74%30.09 "HgN/A
10:00 PM73 °FPartly cloudy.7 mph74%30.09 "HgN/A
9:00 PM75 °FPartly cloudy.7 mph65%30.07 "HgN/A
8:00 PM77 °FPassing clouds.9 mph61%30.07 "HgN/A
7:00 PM77 °FPassing clouds.9 mph61%30.04 "HgN/A
6:00 PM79 °FScattered clouds.7 mph54%30.01 "HgN/A
4:00 PM82 °FScattered clouds.7 mph48%30.01 "HgN/A
3:00 PM84 °FScattered clouds.10 mph48%30.01 "HgN/A
1:00 PM82 °FScattered clouds.8 mph58%30.04 "HgN/A
12:00 PM81 °FScattered clouds.10 mph48%30.04 "HgN/A
11:00 AM81 °FScattered clouds.10 mph58%30.07 "HgN/A
10:00 AM77 °FPartly sunny.5 mph65%30.09 "HgN/A
9:00 AM73 °FPartly sunny.9 mph78%30.07 "Hg5 mi
8:00 AM70 °FScattered showers. Partly sunny.13 mph88%30.07 "Hg5 mi
7:00 AM70 °FPartly sunny.2 mph88%30.07 "HgN/A
6:00 AM68 °FPartly sunny.9 mph94%30.07 "HgN/A
4:00 AM70 °FPassing clouds.7 mph88%30.04 "HgN/A
3:00 AM70 °FPassing clouds.9 mph88%30.04 "HgN/A
2:00 AM70 °FPassing clouds.7 mph88%30.04 "HgN/A
1:00 AM72 °FPassing clouds.7 mph83%30.07 "HgN/A
12:00 AM72 °FPassing clouds.9 mph83%30.07 "HgN/A
Weather by CustomWeather, © 2015

See weather overviewHow to use our weather pages